Rochester, Indiana, United States (46975)
Lat: 41.06N, Lon: 86.22W
Wx Zone: INZ015
Local Info
Past Weather Observations for Today

NOTE: This archive is for the closest National Weather Service station to Rochester. Information may differ from the station used for current weather conditions.

Click here for Long-term Archive

Time Weather Temperature Dewpoint Humidity Pressure Winds Precip Visibility
21:35
Clear
64°F / 18°C 61°F / 16°C 88% 30.12 in
(1020 mb)
Calm - 10SM
21:15
Clear
64°F / 18°C 61°F / 16°C 88% 30.12 in
(1020 mb)
Calm - 10SM
20:55
Clear
68°F / 20°C 61°F / 16°C 78% 30.12 in
(1020 mb)
Calm - 10SM
20:35
Clear
68°F / 20°C 61°F / 16°C 78% 30.12 in
(1020 mb)
Calm - 10SM
20:15
Clear
68°F / 20°C 61°F / 16°C 78% 30.12 in
(1020 mb)
Calm - 10SM
19:55
Clear
68°F / 20°C 61°F / 16°C 78% 30.09 in
(1019 mb)
SE 3.5 mph
(SE 6 kph)
- 10SM
19:35
Clear
68°F / 20°C 61°F / 16°C 78% 30.09 in
(1019 mb)
Calm - 10SM
19:15
Clear
70°F / 21°C 61°F / 16°C 73% 30.09 in
(1019 mb)
Calm - 10SM
18:55
Clear
70°F / 21°C 61°F / 16°C 73% 30.09 in
(1019 mb)
Calm - 10SM
18:35
Clear
72°F / 22°C 61°F / 16°C 69% 30.12 in
(1020 mb)
Calm - 10SM
18:15
Clear
72°F / 22°C 61°F / 16°C 69% 30.12 in
(1020 mb)
Calm - 10SM
17:55
Clear
73°F / 23°C 59°F / 15°C 61% 30.12 in
(1020 mb)
Calm - 10SM
17:35
Clear
73°F / 23°C 59°F / 15°C 61% 30.12 in
(1020 mb)
Calm - 10SM
17:15
Partly Cloudy
73°F / 23°C 59°F / 15°C 61% 30.12 in
(1020 mb)
Calm - 10SM
16:55
Partly Cloudy
73°F / 23°C 59°F / 15°C 61% 30.12 in
(1020 mb)
Calm - 10SM
16:35
Clear
75°F / 24°C 59°F / 15°C 57% 30.12 in
(1020 mb)
Calm - 10SM
16:15
Clear
75°F / 24°C 59°F / 15°C 57% 30.12 in
(1020 mb)
Calm - 10SM
15:55
Clear
75°F / 24°C 59°F / 15°C 57% 30.12 in
(1020 mb)
SW 3.5 mph
(SW 6 kph)
- 10SM
15:35
Mostly Cloudy
75°F / 24°C 59°F / 15°C 57% 30.15 in
(1021 mb)
SSW 3.5 mph
(SSW 6 kph)
- 10SM
15:15
Mostly Cloudy
77°F / 25°C 59°F / 15°C 54% 30.15 in
(1021 mb)
SSW 3.5 mph
(SSW 6 kph)
- 10SM
14:55
Partly Cloudy
75°F / 24°C 59°F / 15°C 57% 30.15 in
(1021 mb)
Calm - 10SM
14:35
Partly Cloudy
77°F / 25°C 59°F / 15°C 54% 30.15 in
(1021 mb)
SSW 4.6 mph
(SSW 7 kph)
- 10SM
14:15
Partly Cloudy
77°F / 25°C 61°F / 16°C 57% 30.15 in
(1021 mb)
SSW 6.9 mph
(SSW 11 kph)
- 10SM
13:55
Partly Cloudy
75°F / 24°C 59°F / 15°C 57% 30.15 in
(1021 mb)
SSE 3.5 mph
(SSE 6 kph)
- 10SM
13:35
Partly Cloudy
75°F / 24°C 59°F / 15°C 57% 30.15 in
(1021 mb)
Calm - 10SM
13:15
Partly Cloudy
75°F / 24°C 59°F / 15°C 57% 30.15 in
(1021 mb)
SW 5.8 mph
(SW 9 kph)
- 10SM
12:55
Clear
73°F / 23°C 59°F / 15°C 61% 30.18 in
(1022 mb)
S 4.6 mph
(S 7 kph)
- 10SM
12:35
Clear
73°F / 23°C 59°F / 15°C 61% 30.18 in
(1022 mb)
S 4.6 mph
(S 7 kph)
- 10SM
12:15
Clear
73°F / 23°C 59°F / 15°C 61% 30.18 in
(1022 mb)
SW 5.8 mph
(SW 9 kph)
- 10SM
11:55
Clear
73°F / 23°C 59°F / 15°C 61% 30.18 in
(1022 mb)
SSW 5.8 mph
(SSW 9 kph)
- 10SM
11:35
Clear
73°F / 23°C 59°F / 15°C 61% 30.18 in
(1022 mb)
SW 5.8 mph
(SW 9 kph)
- 10SM
11:15
Clear
73°F / 23°C 59°F / 15°C 61% 30.18 in
(1022 mb)
SW 4.6 mph
(SW 7 kph)
- 10SM
10:55
Clear
72°F / 22°C 59°F / 15°C 65% 30.21 in
(1023 mb)
SW 6.9 mph
(SW 11 kph)
- 10SM
10:35
Clear
72°F / 22°C 59°F / 15°C 65% 30.21 in
(1023 mb)
SSW 8.1 mph
(SSW 13 kph)
- 10SM
10:15
Clear
72°F / 22°C 59°F / 15°C 65% 30.18 in
(1022 mb)
SW 4.6 mph
(SW 7 kph)
- 10SM
09:55
Clear
70°F / 21°C 59°F / 15°C 69% 30.18 in
(1022 mb)
SW 5.8 mph
(SW 9 kph)
- 10SM
09:35
Clear
68°F / 20°C 59°F / 15°C 73% 30.18 in
(1022 mb)
S 4.6 mph
(S 7 kph)
- 10SM
09:15
Clear
66°F / 19°C 57°F / 14°C 73% 30.18 in
(1022 mb)
SSE 3.5 mph
(SSE 6 kph)
- 10SM
08:55
Clear
64°F / 18°C 57°F / 14°C 78% 30.21 in
(1023 mb)
Calm - 10SM
08:35
Clear
63°F / 17°C 57°F / 14°C 83% 30.18 in
(1022 mb)
Calm - 10SM
08:15
Clear
61°F / 16°C 59°F / 15°C 94% 30.18 in
(1022 mb)
Calm - 7SM
07:55
Clear
59°F / 15°C 55°F / 13°C 88% 30.18 in
(1022 mb)
Calm - 7SM
07:35
Clear
Fog And Mist
57°F / 14°C 55°F / 13°C 94% 30.18 in
(1022 mb)
SE 3.5 mph
(SE 6 kph)
- 5SM
07:15
Clear
Fog And Mist
55°F / 13°C 54°F / 12°C 94% 30.18 in
(1022 mb)
SE 3.5 mph
(SE 6 kph)
- 3SM
06:55
Clear
Fog And Mist
54°F / 12°C 54°F / 12°C 100% 30.18 in
(1022 mb)
SE 3.5 mph
(SE 6 kph)
- 2 1/2SM
06:35
Clear
Fog And Mist
54°F / 12°C 54°F / 12°C 100% 30.18 in
(1022 mb)
Calm - 2 1/2SM
06:15
Clear
Fog And Mist
54°F / 12°C 54°F / 12°C 100% 30.15 in
(1021 mb)
Calm - 3SM
05:55
Clear
Fog And Mist
54°F / 12°C 54°F / 12°C 100% 30.15 in
(1021 mb)
SE 3.5 mph
(SE 6 kph)
- 4SM
05:35
Clear
Fog And Mist
54°F / 12°C 54°F / 12°C 100% 30.15 in
(1021 mb)
SE 3.5 mph
(SE 6 kph)
- 4SM
05:15
Clear
Fog And Mist
54°F / 12°C 52°F / 11°C 94% 30.15 in
(1021 mb)
Calm - 3SM
04:55
Clear
Fog And Mist
54°F / 12°C 54°F / 12°C 100% 30.18 in
(1022 mb)
Calm - 5SM
04:35
Clear
Fog And Mist
54°F / 12°C 54°F / 12°C 100% 30.18 in
(1022 mb)
Calm - 4SM
04:15
Partly Cloudy
Fog And Mist
54°F / 12°C 52°F / 11°C 94% 30.18 in
(1022 mb)
Calm - 4SM
03:55
Mostly Cloudy
Fog And Mist
54°F / 12°C 54°F / 12°C 100% 30.15 in
(1021 mb)
Calm - 5SM
03:35
Mostly Cloudy
Fog And Mist
54°F / 12°C 54°F / 12°C 100% 30.15 in
(1021 mb)
Calm - 5SM
03:15
Partly Cloudy
55°F / 13°C 54°F / 12°C 94% 30.15 in
(1021 mb)
Calm - 7SM
02:55
Clear
54°F / 12°C 54°F / 12°C 100% 30.15 in
(1021 mb)
Calm - 7SM
02:35
Clear
54°F / 12°C 54°F / 12°C 100% 30.15 in
(1021 mb)
Calm - 7SM
02:15
Clear
55°F / 13°C 54°F / 12°C 94% 30.15 in
(1021 mb)
Calm - 10SM
01:55
Clear
55°F / 13°C 54°F / 12°C 94% 30.15 in
(1021 mb)
Calm - 10SM
01:35
Clear
55°F / 13°C 54°F / 12°C 94% 30.15 in
(1021 mb)
Calm - 10SM
01:15
Clear
55°F / 13°C 54°F / 12°C 94% 30.15 in
(1021 mb)
Calm - 10SM
00:55
Clear
55°F / 13°C 54°F / 12°C 94% 30.18 in
(1022 mb)
ESE 3.5 mph
(ESE 6 kph)
- 10SM
00:35
Clear
55°F / 13°C 54°F / 12°C 94% 30.15 in
(1021 mb)
ESE 4.6 mph
(ESE 7 kph)
- 10SM
00:15
Clear
55°F / 13°C 54°F / 12°C 94% 30.18 in
(1022 mb)
E 3.5 mph
(E 6 kph)
- 10SM
Time Weather Temperature Dewpoint Humidity Pressure Winds Precip Visibility


Weather for websites

WeatherForYou.com, LLC is not responsible for any damages or problems caused by this service. Current weather conditions are obtained from the closest station including government and personal stations which may have varying degrees of accuracy. Weather forecasts are derived from the NOAA NDFD. Like all things, this site belongs to Jesus Christ... He just trusts us to maintain it. If you have any questions or comments email webmaster@weatherforyou.com

Copyright © 2015, WeatherForYou.com LLC. All rights reserved.